Zurück zum Katalog

COSMOS 2251 DEB

AktivLEO
NORAD 34446·DEBRIS·🇷🇺 Russia

Gestartet Jun 16, 1993 von Plesetsk Cosmodrome

Loading…

Nächste Überflüge (nächste 24 Stunden)

TLE

AktuellSource: Space-Track

Epoche: Sep 14, 2026, 08:16 UTC

1 34446U 93036SP  26257.34459928  .00000267  00000-0  75794-4 0  9999
2 34446  74.0386 260.3182 0051670 326.4458  33.3432 14.49589809926871

Verfolge COSMOS 2251 DEB in Echtzeit mit AllMySat

Download on the App Store